When you browse on this site, cookies collect data to enhance your experience and personalize the content and advertising you see.
Visit our Privacy Policy to learn more. By continuing to use the site, you agree to this use of cookies and data.
  • En España
  • Lista de países
  • Para 7 días
  • Temperatura del agua
  • Mapa Satelital
  • El tiempo en el mapa
  • Informadores
  • user-avatar
    Iniciar sesión

    Tiempo cada hora Pernik

    Hoy, 20 Noviembre, Martes

    Tiempo Temperatura Precipitaciones Viento Presión Humedad
    00:00 +2°C° 0 mm 1 mps 690 mmHg 76%
    01:00 +3°C° 0 mm 1 mps 690 mmHg 77%
    02:00 +2°C° 0 mm 2 mps 690 mmHg 78%
    03:00 +2°C° 0 mm 2 mps 690 mmHg 79%
    04:00 +3°C° 0 mm 2 mps 690 mmHg 81%
    05:00 +3°C° 0 mm 2 mps 690 mmHg 82%
    06:00 +3°C° 0.4 mm 2 mps 690 mmHg 84%
    07:00 +4°C° 0.4 mm 2 mps 690 mmHg 87%
    08:00 +4°C° 0 mm 2 mps 691 mmHg 88%
    09:00 +5°C° 0.4 mm 2 mps 691 mmHg 87%
    10:00 +6°C° 0.4 mm 2 mps 691 mmHg 86%
    11:00 +6°C° 0.4 mm 2 mps 691 mmHg 85%
    12:00 +7°C° 0.1 mm 3 mps 691 mmHg 84%
    13:00 +8°C° 0.1 mm 3 mps 691 mmHg 84%
    14:00 +8°C° 0.1 mm 3 mps 691 mmHg 83%
    15:00 +8°C° 0.2 mm 2 mps 690 mmHg 86%
    16:00 +7°C° 0.2 mm 2 mps 690 mmHg 89%
    17:00 +6°C° 0.2 mm 2 mps 690 mmHg 92%
    18:00 +6°C° 0.4 mm 2 mps 689 mmHg 93%
    19:00 +6°C° 0.4 mm 2 mps 689 mmHg 93%
    20:00 +6°C° 0.4 mm 2 mps 689 mmHg 94%
    21:00 +6°C° 0.1 mm 2 mps 689 mmHg 94%
    22:00 +5°C° 0.1 mm 2 mps 689 mmHg 94%
    23:00 +5°C° 0.1 mm 2 mps 689 mmHg 94%

    Mañana, 21 Noviembre, Miércoles

    Tiempo Temperatura Precipitaciones Viento Presión Humedad
    00:00 +5°C° 0 mm 2 mps 688 mmHg 94%
    01:00 +5°C° 0 mm 2 mps 688 mmHg 94%
    02:00 +6°C° 0 mm 1 mps 688 mmHg 95%
    03:00 +7°C° 0.2 mm 1 mps 688 mmHg 95%
    04:00 +7°C° 0.2 mm 1 mps 687 mmHg 95%
    05:00 +7°C° 0.2 mm 1 mps 687 mmHg 95%
    06:00 +7°C° 0.4 mm 1 mps 687 mmHg 95%
    07:00 +7°C° 0.4 mm 1 mps 687 mmHg 95%
    08:00 +7°C° 0.4 mm 1 mps 687 mmHg 94%
    09:00 +7°C° 0.3 mm 1 mps 687 mmHg 92%
    10:00 +8°C° 0.3 mm 1 mps 688 mmHg 91%
    11:00 +8°C° 0.3 mm 1 mps 688 mmHg 89%
    12:00 +8°C° 0.4 mm 1 mps 688 mmHg 89%
    13:00 +8°C° 0.4 mm 1 mps 688 mmHg 90%
    14:00 +7°C° 0.4 mm 1 mps 688 mmHg 90%
    15:00 +7°C° 0.4 mm 1 mps 688 mmHg 91%
    16:00 +5°C° 0.4 mm 2 mps 688 mmHg 92%
    17:00 +5°C° 0.4 mm 2 mps 688 mmHg 93%
    18:00 +5°C° 0.3 mm 1 mps 689 mmHg 92%
    19:00 +5°C° 0.3 mm 1 mps 689 mmHg 92%
    20:00 +5°C° 0.3 mm 1 mps 690 mmHg 92%
    21:00 +4°C° 0.1 mm 1 mps 690 mmHg 92%
    22:00 +4°C° 0.1 mm 1 mps 690 mmHg 92%
    23:00 +4°C° 0.1 mm 1 mps 690 mmHg 92%

    Pasado mañana, 22 Noviembre, Jueves

    Tiempo Temperatura Precipitaciones Viento Presión Humedad
    00:00 +4°C° 0 mm 1 mps 691 mmHg 92%
    01:00 +4°C° 0 mm 1 mps 691 mmHg 92%
    02:00 +3°C° 0 mm 1 mps 691 mmHg 92%
    03:00 +3°C° 0.1 mm 1 mps 691 mmHg 92%
    04:00 +3°C° 0.1 mm 1 mps 691 mmHg 92%
    05:00 +3°C° 0.1 mm 1 mps 691 mmHg 92%
    06:00 +3°C° 0.1 mm 1 mps 691 mmHg 92%
    07:00 +3°C° 0.1 mm 1 mps 692 mmHg 91%
    08:00 +3°C° 0.1 mm 1 mps 692 mmHg 91%
    09:00 +4°C° 0 mm 1 mps 692 mmHg 86%
    10:00 +5°C° 0 mm 1 mps 693 mmHg 81%
    11:00 +7°C° 0 mm 1 mps 693 mmHg 76%
    12:00 +7°C° 0 mm 1 mps 693 mmHg 75%
    13:00 +8°C° 0 mm 1 mps 693 mmHg 73%
    14:00 +8°C° 0 mm 1 mps 693 mmHg 72%
    15:00 +7°C° 0 mm 1 mps 693 mmHg 76%
    16:00 +6°C° 0 mm 1 mps 693 mmHg 81%
    17:00 +5°C° 0 mm 1 mps 693 mmHg 85%
    18:00 +5°C° 0 mm 1 mps 693 mmHg 87%
    19:00 +4°C° 0 mm 1 mps 693 mmHg 89%
    20:00 +4°C° 0 mm 1 mps 694 mmHg 91%
    21:00 +3°C° 0 mm 1 mps 694 mmHg 92%
    22:00 +3°C° 0 mm 1 mps 694 mmHg 92%
    23:00 +3°C° 0 mm 1 mps 694 mmHg 92%

    23 Noviembre, Viernes

    Tiempo Temperatura Precipitaciones Viento Presión Humedad
    00:00 +3°C° 0 mm 1 mps 694 mmHg 93%
    01:00 +3°C° 0 mm 1 mps 694 mmHg 93%
    02:00 +2°C° 0 mm 1 mps 694 mmHg 93%
    03:00 +2°C° 0 mm 1 mps 695 mmHg 93%
    04:00 +2°C° 0 mm 1 mps 695 mmHg 93%
    05:00 +2°C° 0 mm 1 mps 695 mmHg 93%
    06:00 +2°C° 0 mm 1 mps 695 mmHg 93%
    07:00 +2°C° 0 mm 1 mps 695 mmHg 92%
    08:00 +2°C° 0 mm 1 mps 696 mmHg 92%
    09:00 +4°C° 0 mm 1 mps 696 mmHg 86%
    10:00 +6°C° 0 mm 1 mps 697 mmHg 80%
    11:00 +7°C° 0 mm 1 mps 697 mmHg 74%
    12:00 +8°C° 0 mm 1 mps 697 mmHg 72%
    13:00 +8°C° 0 mm 1 mps 697 mmHg 70%
    14:00 +9°C° 0 mm 1 mps 697 mmHg 68%
    15:00 +8°C° 0 mm 1 mps 697 mmHg 74%
    16:00 +7°C° 0 mm 1 mps 696 mmHg 79%
    17:00 +5°C° 0 mm 1 mps 696 mmHg 85%
    18:00 +5°C° 0 mm 1 mps 696 mmHg 87%
    19:00 +4°C° 0 mm 1 mps 697 mmHg 89%
    20:00 +4°C° 0 mm 1 mps 697 mmHg 91%
    21:00 +4°C° 0 mm 1 mps 697 mmHg 91%
    22:00 +3°C° 0 mm 1 mps 697 mmHg 91%
    23:00 +3°C° 0 mm 1 mps 697 mmHg 92%

    24 Noviembre, Sábado

    Tiempo Temperatura Precipitaciones Viento Presión Humedad
    00:00 +3°C° 0 mm 1 mps 697 mmHg 92%
    01:00 +3°C° 0 mm 1 mps 697 mmHg 92%
    02:00 +3°C° 0 mm 1 mps 697 mmHg 92%
    03:00 +2°C° 0 mm 1 mps 696 mmHg 92%
    04:00 +2°C° 0 mm 1 mps 696 mmHg 91%
    05:00 +2°C° 0 mm 1 mps 696 mmHg 91%
    06:00 +2°C° 0 mm 1 mps 696 mmHg 91%
    07:00 +2°C° 0 mm 1 mps 696 mmHg 90%
    08:00 +2°C° 0 mm 1 mps 696 mmHg 90%
    09:00 +4°C° 0 mm 1 mps 696 mmHg 83%
    10:00 +6°C° 0 mm 1 mps 696 mmHg 75%
    11:00 +8°C° 0 mm 1 mps 696 mmHg 68%
    12:00 +8°C° 0 mm 2 mps 696 mmHg 65%
    13:00 +9°C° 0 mm 2 mps 695 mmHg 62%
    14:00 +10°C° 0 mm 2 mps 695 mmHg 59%
    15:00 +9°C° 0 mm 1 mps 694 mmHg 65%
    16:00 +8°C° 0 mm 1 mps 694 mmHg 70%
    17:00 +7°C° 0 mm 1 mps 693 mmHg 76%
    18:00 +6°C° 0 mm 1 mps 693 mmHg 77%
    19:00 +6°C° 0 mm 1 mps 694 mmHg 79%
    20:00 +6°C° 0 mm 1 mps 694 mmHg 80%
    21:00 +5°C° 0 mm 1 mps 693 mmHg 81%
    22:00 +5°C° 0 mm 1 mps 693 mmHg 82%
    23:00 +5°C° 0 mm 1 mps 693 mmHg 83%

    25 Noviembre, Domingo

    Tiempo Temperatura Precipitaciones Viento Presión Humedad
    00:00 +4°C° 0 mm 1 mps 693 mmHg 83%
    01:00 +4°C° 0 mm 1 mps 692 mmHg 83%
    02:00 +4°C° 0 mm 1 mps 692 mmHg 82%
    03:00 +4°C° 0 mm 1 mps 692 mmHg 83%
    04:00 +4°C° 0 mm 1 mps 691 mmHg 83%
    05:00 +3°C° 0 mm 2 mps 691 mmHg 83%
    06:00 +4°C° 0 mm 1 mps 691 mmHg 83%
    07:00 +4°C° 0 mm 1 mps 691 mmHg 83%
    08:00 +4°C° 0 mm 1 mps 691 mmHg 83%
    09:00 +5°C° 0 mm 2 mps 691 mmHg 76%
    10:00 +7°C° 0 mm 2 mps 691 mmHg 70%
    11:00 +9°C° 0 mm 2 mps 691 mmHg 63%
    12:00 +10°C° 0 mm 2 mps 691 mmHg 61%
    13:00 +12°C° 0 mm 2 mps 690 mmHg 59%
    14:00 +13°C° 0 mm 2 mps 690 mmHg 57%
    15:00 +12°C° 0 mm 2 mps 689 mmHg 63%
    16:00 +10°C° 0 mm 1 mps 689 mmHg 69%
    17:00 +9°C° 0 mm 1 mps 688 mmHg 76%
    18:00 +8°C° 0 mm 1 mps 688 mmHg 78%
    19:00 +8°C° 0 mm 1 mps 688 mmHg 81%
    20:00 +7°C° 0 mm 1 mps 688 mmHg 83%
    21:00 +7°C° 0 mm 1 mps 688 mmHg 84%
    22:00 +7°C° 0 mm 1 mps 688 mmHg 85%
    23:00 +7°C° 0 mm 1 mps 688 mmHg 86%
    Mostrar más